Date String (YYYY-MM-DD hh:mm:ss) UTC,Instrument flags,Ambient pressure (hPa),Sample flow (lpm),Bypass flow (lpm),Sample temperature (°C),Ambient temperature (°C),ASC tube jacket temperature (°C),LED temperature (°C),Box temperature (°C),Sample RH (%),Span deviation,Mass concentration (μg/m³),Mass concentration (μg/m³),Mass concentration (μg/m³)
DateTimeUTC,F1_M11,P_M11,Q1_M11,Q2_M11,T1_M11,T2_M11,T3_M11,T4_M11,T5_M11,U1_M11,ZSPAN_M11,X0_M11,X2_M11,X1_M11
2022-08-19 10:00:00,,0827.7,5.00,0.00,29.8,28.5,00.0,38.5,31.6,20.9,0000.0,0013.40,0005.97,0005.27
2022-08-19 10:01:00,,0827.7,5.00,0.00,29.8,28.6,00.0,38.6,31.7,20.8,0000.0,0013.62,0005.99,0005.27
2022-08-19 10:02:00,,0827.7,4.99,0.00,29.8,28.6,00.0,38.6,31.7,20.8,0000.0,0013.67,0005.99,0005.26
2022-08-19 10:03:00,,0827.7,5.00,0.00,29.8,28.7,00.0,38.6,31.7,20.7,0000.0,0014.21,0005.98,0005.25
2022-08-19 10:04:00,,0827.7,5.00,0.00,29.8,28.7,00.0,38.6,31.7,20.8,0000.0,0014.40,0006.02,0005.25
2022-08-19 10:05:00,,0827.7,5.01,0.00,29.8,28.7,00.0,38.6,31.7,20.8,0000.0,0015.05,0006.01,0005.24
2022-08-19 10:06:00,,0827.7,5.00,0.00,29.8,28.7,00.0,38.6,31.7,20.7,0000.0,0014.77,0006.06,0005.23
2022-08-19 10:07:00,,0827.7,5.00,0.00,29.9,28.8,00.0,38.6,31.8,20.7,0000.0,0014.78,0006.06,0005.23
2022-08-19 10:08:00,,0827.7,5.00,0.00,29.9,28.8,00.0,38.6,31.8,20.7,0000.0,0015.04,0006.07,0005.23
2022-08-19 10:09:00,,0827.7,5.00,0.00,29.9,28.8,00.0,38.6,31.8,20.7,0000.0,0014.70,0006.07,0005.24
2022-08-19 10:10:00,,0827.7,5.00,0.00,29.9,28.8,00.0,38.6,31.8,20.7,0000.0,0014.23,0006.06,0005.24
2022-08-19 10:11:00,,0827.7,4.99,0.00,29.9,28.9,00.0,38.6,31.8,20.7,0000.0,0013.97,0006.04,0005.24
2022-08-19 10:12:00,,0827.6,5.00,0.00,29.9,28.9,00.0,38.7,31.9,20.7,0000.0,0013.31,0006.03,0005.25
2022-08-19 10:13:00,,0827.7,5.00,0.00,30.0,28.9,00.0,38.7,31.9,20.7,0000.0,0012.74,0006.02,0005.24
2022-08-19 10:14:00,,0827.6,5.00,0.00,30.0,28.9,00.0,38.7,31.9,20.8,0000.0,0012.46,0006.00,0005.25
2022-08-19 10:15:00,,0827.6,5.00,0.00,30.0,28.9,00.0,38.7,31.9,20.7,0000.0,0012.26,0005.98,0005.26
2022-08-19 10:16:00,,0827.6,5.00,0.00,30.0,29.0,00.0,38.7,31.9,20.7,0000.0,0011.99,0005.97,0005.26
2022-08-19 10:17:00,,0827.6,5.00,0.00,30.0,29.0,00.0,38.7,31.9,20.7,0000.0,0012.02,0005.90,0005.27
2022-08-19 10:18:00,,0827.5,5.00,0.00,30.0,29.0,00.0,38.7,31.9,20.6,0000.0,0011.40,0005.84,0005.26
2022-08-19 10:19:00,,0827.5,5.01,0.00,30.0,29.0,00.0,38.8,31.9,20.6,0000.0,0011.35,0005.85,0005.26
2022-08-19 10:20:00,,0827.5,5.00,0.00,30.1,29.0,00.0,38.8,32.0,20.6,0000.0,0011.80,0005.90,0005.27
2022-08-19 10:21:00,,0827.5,5.00,0.00,30.1,29.0,00.0,38.8,32.0,20.5,0000.0,0011.91,0005.92,0005.30
2022-08-19 10:22:00,,0827.5,5.00,0.00,30.1,29.0,00.0,38.8,32.0,20.5,0000.0,0012.15,0005.96,0005.32
2022-08-19 10:23:00,,0827.5,5.00,0.00,30.1,29.0,00.0,38.8,32.0,20.5,0000.0,0013.07,0005.97,0005.34
2022-08-19 10:24:00,,0827.6,5.00,0.00,30.1,29.0,00.0,38.8,32.0,20.5,0000.0,0013.08,0006.02,0005.37
2022-08-19 10:25:00,,0827.5,4.99,0.00,30.1,29.0,00.0,38.8,32.0,20.5,0000.0,0013.23,0006.05,0005.39
2022-08-19 10:26:00,,0827.5,5.00,0.00,30.1,29.1,00.0,38.8,32.0,20.5,0000.0,0013.27,0006.06,0005.40
2022-08-19 10:27:00,,0827.5,5.01,0.00,30.1,29.1,00.0,38.9,32.0,20.5,0000.0,0013.24,0006.14,0005.43
2022-08-19 10:28:00,,0827.5,5.00,0.00,30.1,29.1,00.0,38.9,32.0,20.4,0000.0,0013.64,0006.22,0005.45
2022-08-19 10:29:00,,0827.5,5.00,0.00,30.2,29.1,00.0,38.9,32.0,20.5,0000.0,0014.20,0006.28,0005.48
2022-08-19 10:30:00,,0827.5,5.01,0.00,30.2,29.1,00.0,38.9,32.0,20.4,0000.0,0014.21,0006.30,0005.50
2022-08-19 10:31:00,,0827.5,5.00,0.00,30.2,29.1,00.0,38.9,32.0,20.4,0000.0,0013.52,0006.33,0005.52
2022-08-19 10:32:00,,0827.5,4.99,0.00,30.2,29.1,00.0,38.9,32.1,20.4,0000.0,0013.57,0006.32,0005.52
2022-08-19 10:33:00,,0827.5,5.00,0.00,30.2,29.1,00.0,38.9,32.1,20.4,0000.0,0013.10,0006.34,0005.52
2022-08-19 10:34:00,,0827.5,5.00,0.00,30.2,29.0,00.0,38.9,32.0,20.4,0000.0,0012.81,0006.37,0005.52
2022-08-19 10:35:00,,0827.5,5.00,0.00,30.2,28.2,00.0,38.8,31.8,20.3,0000.0,0012.93,0006.37,0005.53
2022-08-19 10:36:00,,0827.5,5.00,0.00,30.1,27.7,00.0,38.8,31.7,20.4,0000.0,0012.90,0006.39,0005.54
2022-08-19 10:37:00,,0827.5,4.99,0.00,30.0,27.6,00.0,38.8,31.6,20.5,0000.0,0013.29,0006.38,0005.55
2022-08-19 10:38:00,,0827.6,5.01,0.00,29.9,27.6,00.0,38.8,31.5,20.6,0000.0,0013.53,0006.36,0005.56
2022-08-19 10:39:00,,0827.5,5.01,0.00,29.9,27.7,00.0,38.7,31.5,20.6,0000.0,0013.59,0006.35,0005.57
2022-08-19 10:40:00,,0827.6,4.99,0.00,29.8,27.8,00.0,38.7,31.5,20.7,0000.0,0013.22,0006.38,0005.57
2022-08-19 10:41:00,,0827.5,5.00,0.00,29.8,27.9,00.0,38.7,31.5,20.6,0000.0,0013.37,0006.43,0005.57
2022-08-19 10:42:00,,0827.5,5.00,0.00,29.8,28.0,00.0,38.7,31.5,20.7,0000.0,0013.39,0006.41,0005.56
2022-08-19 10:43:00,,0827.5,4.99,0.00,29.8,28.1,00.0,38.7,31.6,20.8,0000.0,0013.32,0006.41,0005.57
2022-08-19 10:44:00,,0827.5,4.99,0.00,29.8,28.2,00.0,38.6,31.6,20.7,0000.0,0013.31,0006.42,0005.58
2022-08-19 10:45:00,,0827.5,5.01,0.00,29.8,28.3,00.0,38.6,31.6,20.7,0000.0,0013.11,0006.39,0005.58
2022-08-19 10:46:00,,0827.5,5.00,0.00,29.8,28.4,00.0,38.6,31.6,20.7,0000.0,0013.18,0006.38,0005.60
2022-08-19 10:47:00,,0827.4,4.98,0.00,29.8,28.4,00.0,38.6,31.6,20.6,0000.0,0012.72,0006.35,0005.60
2022-08-19 10:48:00,,0827.4,5.00,0.00,29.8,28.5,00.0,38.6,31.6,20.6,0000.0,0012.31,0006.38,0005.61
2022-08-19 10:49:00,,0827.4,5.00,0.00,29.8,28.5,00.0,38.6,31.7,20.7,0000.0,0011.81,0006.38,0005.61
2022-08-19 10:50:00,,0827.4,5.00,0.00,29.8,28.6,00.0,38.6,31.7,20.8,0000.0,0011.70,0006.35,0005.60
2022-08-19 10:51:00,,0827.4,5.00,0.00,29.8,28.6,00.0,38.6,31.7,20.7,0000.0,0012.04,0006.33,0005.60
2022-08-19 10:52:00,,0827.4,5.01,0.00,29.8,28.7,00.0,38.6,31.7,20.6,0000.0,0011.68,0006.24,0005.60
2022-08-19 10:53:00,,0827.4,5.00,0.00,29.8,28.7,00.0,38.6,31.7,20.6,0000.0,0011.67,0006.25,0005.60
2022-08-19 10:54:00,,0827.4,5.00,0.00,29.9,28.7,00.0,38.6,31.7,20.6,0000.0,0012.02,0006.25,0005.62
2022-08-19 10:55:00,,0827.4,5.00,0.00,29.9,28.7,00.0,38.6,31.7,20.7,0000.0,0012.56,0006.23,0005.61
2022-08-19 10:56:00,,0827.3,5.00,0.00,29.9,28.8,00.0,38.6,31.7,20.6,0000.0,0012.52,0006.27,0005.61
2022-08-19 10:57:00,,0827.4,5.01,0.00,29.9,28.8,00.0,38.6,31.8,20.6,0000.0,0012.16,0006.32,0005.60
2022-08-19 10:58:00,,0827.4,4.99,0.00,29.9,28.8,00.0,38.7,31.8,20.6,0000.0,0012.12,0006.35,0005.60
2022-08-19 10:59:00,,0827.4,5.01,0.00,29.9,28.8,00.0,38.7,31.8,20.6,0000.0,0012.05,0006.33,0005.61
